* Astronomy

Members Login
Post Info TOPIC: Asteroids 2004 KD19 AND 2004 OP15


L

Posts: 131433
Date:
Asteroids 2004 KD19 AND 2004 OP15
Permalink  
 


Orbital elements:
2004 KD19
Epoch 2011 Feb. 8.0 TT = JDT 2455600.5                  MPC
M 176.40825              (2000.0)            P               Q
n   0.00417407     Peri.   62.49103     +0.38595315     -0.92251313
a  38.2028615      Node     4.80923     +0.83275191     +0.34694340
e   0.0182718      Incl.    2.12834     +0.39694386     +0.16911477
P 236              H    7.4           G   0.15           U   4
2004 OP15
Epoch 2011 Feb. 8.0 TT = JDT 2455600.5                  MPC
M 281.90475              (2000.0)            P               Q
n   0.00409484     Peri.   91.01824     +0.86380960     -0.34400861
a  38.6941130      Node   289.18405     +0.13800097     +0.86421642
e   0.0576628      Incl.   22.93794     +0.48455000     +0.36713493
P 241              H    6.9           G   0.15           U   3

MPEC 2011 - H19



__________________
Page 1 of 1  sorted by
Quick Reply

Please log in to post quick replies.



Create your own FREE Forum
Report Abuse
Powered by ActiveBoard